Regional Weather Roundup
Issued by NWS Upton, NY

Current Version | Previous Version | Text Only | Print | Product List | Glossary On
Versions: 1 2 3 4 5 6 7 8 9 10 11 12 13 14 15 16 17 18 19 20 21 22 23 24 25 26 27 28 29 30 31 32 33 34 35 36
000
ASUS41 KOKX 231405
RWROKX

REGIONAL WEATHER ROUNDUP
NATIONAL WEATHER SERVICE NEW YORK NY
1000 AM EDT THU OCT 23 2014

NOTE: "FAIR" INDICATES FEW OR NO CLOUDS BELOW 12,000 FEET WITH NO
SIGNIFICANT WEATHER AND/OR OBSTRUCTIONS TO VISIBILITY.

NYZ071-072-176-178-NJZ106-104-231500-
NEW YORK CITY METRO AREA


CITY           SKY/WX    TMP DP  RH WIND       PRES   REMARKS
CENTRAL PARK   CLOUDY    50  47  89 N9        29.73S
LAGUARDIA APRT CLOUDY    52  46  80 N15G23    29.70S
KENNEDY INTL   LGT RAIN  51  46  83 N21G28    29.69S
NEWARK/LIBERTY NOT AVBL
BRNX BOT. GARD   N/A     50  45  81 N14       29.72R
TETERBORO      CLOUDY    52  45  77 N9        29.71S
$$

NYZ177-179-078>081-231500-
LONG ISLAND NEW YORK

CITY           SKY/WX    TMP DP  RH WIND       PRES   REMARKS
FARMINGDALE    CLOUDY    52  48  86 N10G20    29.67R
ISLIP          LGT RAIN  53  49  86 N17G26    29.63R
SHIRLEY        CLOUDY    54  49  83 N20G29    29.64R
WESTHAMPTON    CLOUDY    55  50  83 N13       29.61S
MONTAUK POINT    N/A     56  50  80 N17G25    29.59S
$$

NYZ052-065-067-231500-
HUDSON VALLEY

CITY           SKY/WX    TMP DP  RH WIND       PRES   REMARKS
WHITE PLAINS   PTSUNNY   49  45  86 N21G29    29.67S
NEWBURGH       LGT RAIN  48  46  93 NE17G29   29.77R
MONTGOMERY     LGT RAIN  49  46  90 NE7       29.76R
POUGHKEEPSIE   LGT RAIN  49  44  83 N14G22    29.75F
ALBANY         LGT RAIN  47  43  86 N9        29.86S
$$

NJZ001-105-106-008-010-013-015-019>022-104-231500-
NEW JERSEY

CITY           SKY/WX    TMP DP  RH WIND       PRES   REMARKS
NEWARK/LIBERTY NOT AVBL
TETERBORO      CLOUDY    52  45  77 N9        29.71S
CALDWELL       CLOUDY    52  46  80 VRB5      29.73S
MORRISTOWN     CLOUDY    54  50  87 N8G17     29.74S
SOMERVILLE     CLOUDY    52  46  80 N12G18    29.74R
SUSSEX         CLOUDY    52  46  80 VRB6      29.76S
ANDOVER          N/A     49  45  86 N10       29.77R
TRENTON        RAIN      50  47  89 NW10      29.75R FOG
MILLVILLE      CLOUDY    51  47  86 NW15      29.77S
ATLANTIC CITY  CLOUDY    50  48  93 NW20      29.73R
WRIGHTSTOWN    LGT RAIN  51  50  97 NW18      29.72S
TOMS RIVER     CLOUDY    50  48  93 N5        29.72S
BELMAR         CLOUDY    52  45  76 NW13G20   29.70S
$$

PAZ047>061-062-071-231500-
EASTERN PENNSYLVANIA

CITY           SKY/WX    TMP DP  RH WIND       PRES   REMARKS
PHILADELPHIA   CLOUDY    52  46  80 NW18G28   29.78S
ALLENTOWN      CLOUDY    51  41  68 NW14G23   29.81R
SCRANTON       LGT RAIN  46  41  82 N8        29.88R
$$

CTZ002-004>006-009-010-012-RIZ004-006-007-MAZ004-011-015-231500-
SOUTHERN NEW ENGLAND
 IN CT

CITY           SKY/WX    TMP DP  RH WIND       PRES   REMARKS
BRADLEY INTL   CLOUDY    52  47  83 N18G29    29.68R
HARTFORD       CLOUDY    51  47  86 N16G28    29.67R
DANBURY        CLOUDY    49  42  77 NW7       29.71S
WTRBRY/OXFORD  NOT AVBL
BRIDGEPORT     LGT RAIN  55  48  77 N16G23    29.65R
MERIDEN        CLOUDY    52  46  80 N15G23    29.68R
NEW HAVEN      CLOUDY    54  47  77 N23G37    29.63R
CHESTER        PTSUNNY   54  46  76 N14G20    29.64R
GROTON         PTSUNNY   56  48  74 N21G31    29.59R
WILLIMANTIC    CLOUDY    53  46  77 N14G22    29.63S

 IN RI

CITY           SKY/WX    TMP DP  RH WIND       PRES   REMARKS
PROVIDENCE     CLOUDY    54  48  80 N22G30    29.62R
BLOCK ISLAND   CLOUDY    55  48  76 N20G33    29.57R
WESTERLY       PTSUNNY   57  48  72 N15G25    29.59S

 IN MA

CITY           SKY/WX    TMP DP  RH WIND       PRES   REMARKS
BOSTON         CLOUDY    52  50  93 N30G44    29.61F
WORCESTER      RAIN      47  45  93 N25G39    29.65R
WESTFIELD      LGT RAIN  50  46  86 N15G25    29.69F
PROVINCETOWN   MOSUNNY   61   5  11 NE12      29.55F
NANTUCKET      CLOUDY    59  56  89 N13       29.53R
$$

ANZ330-335-338-340-345-350-353-355-231500-
COASTAL MARINE OBSERVATIONS


STATION/POSITION TIME  SKY/WX   TEMP    WIND        PRES    VSBY  WAVE
                                AIR SEA DIR/SP/G                  HT/PER
                 (UTC)          (F)     (DEG/KT/KT) (MB)    (MI)  (FT/S)
NY HARB ENTRANCE NOT AVBL
4S FIRE IS       1400               63                N/A           5/ 9
20S FIRE ISLAND  1400            56 64  360/ 27/ 33 1001.9          8/ 6
23SW MTP         1400                                 N/A           8/ 6
HUDSON CANYON    1400            58 67  350/ 23/ 27 1000.7         10/ 8
EXECUTION ROCKS  1400            52 62  330/ 14/ 23   N/A
WESTERN LI SOUND 1400            52     350/ 16/ 21   N/A           3/ 5
CENTRAL LI SOUND 1400            55 63   30/ 21/ 25   N/A           3/ 3
EASTERN LI SOUND 1300            57 63   20/ 17/ 25   N/A
ROBBINS REEF     1400            51     340/ 13/ 20 1004.8
$$


>>>>>>>>>>>>>>>>>>>>>>>>>>>> KEY <<<<<<<<<<<<<<<<<<<<<<<<<<<
>                                                          <
>     SKY/WX - SKY CONDITION/PRESENT WEATHER               <
>     TMP    - TEMPERATURE IN FAHRENHEIT                   <
>     DP     - DEWPOINT IN FAHRENHEIT                      <
>     RH     - RELATIVE HUMIDITY IN PERCENT                <
>     WIND   - DIRECTION AND SPEED IN MPH                  <
>     PRES   - MEAN SEA LEVEL PRESSURE IN INCHES OF HG     <
>     WCI    - WIND CHILL INDEX                            <
>     VSB    - VISIBILITY IN MILES                         <
>     HX     - HEAT INDEX                                  <
>     TC     - TEMPERATURE IN CELSIUS                      <
>     VRB    - VARIABLE WIND DIRECTION                     <
>                                                          <
>>>>>>>>>>>>>>>>>>>>>>>>>>>> KEY <<<<<<<<<<<<<<<<<<<<<<<<<<<





USA.gov is the U.S. government's official web portal to all federal, state and local government web resources and services.